Regional Weather Roundup
Issued by NWS

Home | Current Version | Previous Version | Text Only | Print | Product List | Glossary Off
Versions: 1 2 3 4 5 6 7 8 9 10 11 12 13 14 15 16 17 18 19 20 21 22 23 24 25 26 27 28 29 30 31 32 33 34 35 36 37 38 39 40 41 42 43 44 45 46 47 48 49 50

114
ASUS45 KCYS 290110
RWRWY

WYOMING REGIONAL WEATHER ROUNDUP
NATIONAL WEATHER SERVICE CHEYENNE WY
700 PM MDT WED JUN 28 2017

NOTE:  "FAIR" INDICATES FEW OR NO CLOUDS BELOW 12,000 FEET
WITH NO SIGNIFICANT WEATHER AND/OR OBSTRUCTIONS TO VISIBILITY.

WYZ001-290200-
YELLOWSTONE NATIONAL PARK

CITY           SKY/WX    TMP DP  RH WIND       PRES   REMARKS
LK YELLOWSTONE   N/A     40  39  97 VRB3      30.14R
W YELLOWSTONE  NOT AVBL

$$
WYZ002>013-054>058-071-098>099-290200-
NORTHERN WYOMING

CITY           SKY/WX    TMP DP  RH WIND       PRES   REMARKS
JACKSON        SUNNY     61  39  44 S9        30.02R
CODY           TSTM      55  47  74 VRB3      29.95R
GREYBULL       FAIR      62  47  57 NW29G38   29.85R
WORLAND        FAIR      70  49  47 CALM      29.79R
SHERIDAN       PTSUNNY   66  49  54 CALM      29.86R
BUFFALO        FAIR      61  48  62 N12G23    29.89R
GILLETTE       FAIR      64  53  67 N5        29.83S
NEWCASTLE      FAIR      77  43  29 E14       29.77R

$$
WYZ014>020-022>026-101>103-290200-
CENTRAL WYOMING

CITY           SKY/WX    TMP DP  RH WIND       PRES   REMARKS
BIG PINEY      PTSUNNY   59  39  47 N23G33    30.09R
PINEDALE       CLOUDY    50  43  76 NW18G29   30.12R
DUBOIS         TSTM      45  37  76 W40G48    30.03R
LANDER         FAIR      68  33  27 NW24G31   29.89R
RIVERTON       FAIR      69  35  28 NW20      29.89R
CASPER         FAIR      74  36  25 NW18G28   29.84R
DOUGLAS        FAIR      77  39  25 NW18      29.82R

$$
WYZ021-027>030-104>119-290200-
SOUTHERN WYOMING

CITY           SKY/WX    TMP DP  RH WIND       PRES   REMARKS
EVANSTON       FAIR      73  26  17 W20       30.01S
KEMMERER         N/A     64  32  29 NW14G20   30.04R
FORT BRIDGER   FAIR      75  27  17 NW16G32   30.03R
ROCK SPRINGS   FAIR      69  33  26 N15G26    29.97R
DIXON          FAIR      78  22  12 NW29G35   29.95R
RAWLINS        FAIR      73  30  20 NW24G33   29.96R
SARATOGA       FAIR      75  27  16 W20G30    29.95S
LARAMIE        FAIR      76  24  14 W12       29.96R
CHEYENNE       FAIR      76  34  21 NE5       29.89F
TORRINGTON     FAIR      80  41  24 E8        29.72F
PINE BLUFFS    FAIR      77  36  22 N10G16    29.86R

$$




USA.gov is the U.S. government's official web portal to all federal, state and local government web resources and services.